Home   Weather   Belfast   Past weeks

Flag for United Kingdom Past Weather in Belfast, Northern Ireland, United Kingdom — Yesterday and Last 2 Weeks

Now
46 °F

Passing clouds.


Feels Like: 42 °F
Forecast: 48 / 57 °F
Wind: 8 mph from South

Location: Belfast / Harbour

Current Time: Apr 29, 2017 at 6:41:03 am

Latest Report: Apr 29, 2017 at 6:20 am


Visibility: N/A

Pressure: 29.83 "Hg

Humidity: 87%

Dew Point: 43 °F

Location of BelfastLocation

Past Weather in Belfast — Graph

°F

Belfast Temperature Yesterday

Maximum temperature yesterday: 54 °F (at 2:20 pm)
Minimum temperature yesterday: 46 °F (at 6:20 am)
Average temperature yesterday: 50 °F

High & Low Weather Summary for the Past Weeks

 TemperatureHumidityPressure
High57 °F (Apr 19, 11:50 am)100% (Apr 16, 6:20 am)30.57 "Hg (Apr 16, 6:20 am)
Low36 °F (Apr 23, 6:20 am)37% (Apr 24, 3:20 pm)29.89 "Hg (Apr 14, 6:20 am)
Average48 °F75%30.23 "Hg
* Reported Apr 13 9:20 pm — Apr 28 9:20 pm, Belfast, Weather by CustomWeather, © 2017

Note: Actual official high and low records may vary slightly from our data, if they occured in-between our weather recording intervals... More about our weather records

Advertising

Belfast Weather History for the Previous 24 Hours

Scroll right to see more
 ConditionsComfort  
Time TempWeatherWind HumidityBarometerVisibility
9:20 pm
Fri, Apr 28
48 °FPassing clouds.8 mph76%29.92 "HgN/A
8:50 pm48 °FPartly sunny.8 mph76%29.92 "HgN/A
8:20 pm48 °FPartly sunny.9 mph71%29.92 "HgN/A
7:50 pm50 °FPartly sunny.10 mph58%29.95 "HgN/A
7:20 pm50 °FPartly sunny.12 mph58%29.95 "HgN/A
6:50 pm50 °FPartly sunny.9 mph58%29.95 "HgN/A
6:20 pm50 °FPartly sunny.12 mph58%29.95 "HgN/A
5:50 pm50 °FPartly sunny.9 mph58%29.95 "HgN/A
5:20 pm50 °FPartly sunny.10 mph58%29.95 "HgN/A
4:50 pm50 °FPartly sunny.9 mph58%29.95 "HgN/A
4:20 pm52 °FPartly sunny.12 mph58%29.98 "HgN/A
3:50 pm52 °FPartly sunny.10 mph58%29.98 "HgN/A
3:20 pm52 °FPartly sunny.9 mph58%29.98 "HgN/A
2:50 pm52 °FPartly sunny.9 mph58%29.98 "HgN/A
2:20 pm54 °FPartly sunny.9 mph54%29.98 "HgN/A
1:50 pm52 °FScattered clouds.8 mph58%29.98 "HgN/A
1:20 pm52 °FScattered clouds.8 mph58%30.01 "HgN/A
12:50 pm52 °FScattered clouds.10 mph58%30.01 "HgN/A
12:20 pm52 °FBroken clouds.5 mph58%30.01 "HgN/A
11:50 am50 °FBroken clouds.5 mph67%30.01 "HgN/A
11:20 am50 °FScattered clouds.2 mph62%30.04 "HgN/A
10:50 am48 °FScattered clouds.2 mph66%30.04 "HgN/A
10:20 am48 °FBroken clouds.6 mph66%30.04 "HgN/A
9:50 am48 °FPartly sunny.6 mph71%30.04 "HgN/A
9:20 am48 °FPartly sunny.3 mph71%30.07 "HgN/A
8:50 am48 °FPartly sunny.3 mph76%30.07 "HgN/A
8:20 am46 °FPartly sunny.3 mph82%30.07 "HgN/A
7:50 am46 °FBroken clouds.7 mph76%30.07 "HgN/A
7:20 am46 °FPartly sunny.8 mph71%30.07 "HgN/A
6:50 am46 °FScattered clouds.3 mph76%30.07 "HgN/A
6:20 am46 °FScattered clouds.6 mph76%30.07 "HgN/A
Weather by CustomWeather, © 2017

See weather overviewHow to use our weather pages